Voltar ao catálogo

ONEWEB-0222

AtivoComunicaçõesPO
NORAD 48775·PAYLOAD·🇬🇧 United Kingdom

Lançado May 28, 2021 de Vostochny Cosmodrome

Loading…

Próximas Passagens (próximas 24 horas)

TLE

AtualizadoSource: CelesTrak SupGP

Época: Sep 14, 2026, 19:25 UTC

1 48775C 21045J   26257.80918238  .00003661  00000+0  97372-2 0  2576
2 48775  87.8988 241.3203 0002001  79.2433 343.5690 13.15545121    16

Acompanhe ONEWEB-0222 em tempo real com AllMySat

Download on the App Store